Year,Month,Day,Hour,Minute,Value (Times are PST for temperature in C)
2019,08,14,00,00,14.60
2019,08,14,00,01,14.60
2019,08,14,00,02,14.60
2019,08,14,00,03,14.60
2019,08,14,00,04,14.60
2019,08,14,00,05,14.60
2019,08,14,00,06,14.60
2019,08,14,00,07,14.50
2019,08,14,00,08,14.50
2019,08,14,00,09,14.50
2019,08,14,00,10,14.50
2019,08,14,00,11,14.50
2019,08,14,00,12,14.40
2019,08,14,00,13,14.40
2019,08,14,00,14,14.40
2019,08,14,00,15,14.50
2019,08,14,00,16,14.40
2019,08,14,00,17,14.40
2019,08,14,00,18,14.40
2019,08,14,00,19,14.40
2019,08,14,00,20,14.40
2019,08,14,00,21,14.40
2019,08,14,00,22,14.40
2019,08,14,00,23,14.40
2019,08,14,00,24,14.30
2019,08,14,00,25,14.30
2019,08,14,00,26,14.30
2019,08,14,00,27,14.30
2019,08,14,00,28,14.30
2019,08,14,00,29,14.30
2019,08,14,00,30,14.30
2019,08,14,00,31,14.30
2019,08,14,00,32,14.30
2019,08,14,00,33,14.30
2019,08,14,00,34,14.30
2019,08,14,00,35,14.30
2019,08,14,00,36,14.30
2019,08,14,00,37,14.20
2019,08,14,00,38,14.20
2019,08,14,00,39,14.20
2019,08,14,00,40,14.20
2019,08,14,00,41,14.10
2019,08,14,00,42,14.10
2019,08,14,00,43,14.10
2019,08,14,00,44,14.10
2019,08,14,00,45,14.10
2019,08,14,00,46,14.10
2019,08,14,00,47,14.00
2019,08,14,00,48,14.00
2019,08,14,00,49,14.00
2019,08,14,00,50,14.00
2019,08,14,00,51,14.00
2019,08,14,00,52,14.00
2019,08,14,00,53,14.00
2019,08,14,00,54,13.90
2019,08,14,00,55,13.90
2019,08,14,00,56,13.90
2019,08,14,00,57,13.90
2019,08,14,00,58,14.00
2019,08,14,00,59,14.00
2019,08,14,01,00,14.00
2019,08,14,01,01,14.00
2019,08,14,01,02,13.90
2019,08,14,01,03,13.90
2019,08,14,01,04,13.90
2019,08,14,01,05,13.90
2019,08,14,01,06,13.90
2019,08,14,01,07,13.90
2019,08,14,01,08,13.90
2019,08,14,01,09,13.90
2019,08,14,01,10,13.90
2019,08,14,01,11,13.90
2019,08,14,01,12,13.90
2019,08,14,01,13,13.90
2019,08,14,01,14,13.90
2019,08,14,01,15,13.80
2019,08,14,01,16,13.80
2019,08,14,01,17,13.80
2019,08,14,01,18,13.80
2019,08,14,01,19,13.80
2019,08,14,01,20,13.80
2019,08,14,01,21,13.80
2019,08,14,01,22,13.80
2019,08,14,01,23,13.80
2019,08,14,01,24,13.70
2019,08,14,01,25,13.70
2019,08,14,01,26,13.70
2019,08,14,01,27,13.70
2019,08,14,01,28,13.70
2019,08,14,01,29,13.70
2019,08,14,01,30,13.70
2019,08,14,01,31,13.70
2019,08,14,01,32,13.70
2019,08,14,01,33,13.70
2019,08,14,01,34,13.70
2019,08,14,01,35,13.70
2019,08,14,01,36,13.70
2019,08,14,01,37,13.70
2019,08,14,01,38,13.70
2019,08,14,01,39,13.70
2019,08,14,01,40,13.70
2019,08,14,01,41,13.70
2019,08,14,01,42,13.70
2019,08,14,01,43,13.70
2019,08,14,01,44,13.70
2019,08,14,01,45,13.70
2019,08,14,01,46,13.70
2019,08,14,01,47,13.70
2019,08,14,01,48,13.70
2019,08,14,01,49,13.70
2019,08,14,01,50,13.70
2019,08,14,01,51,13.70
2019,08,14,01,52,13.70
2019,08,14,01,53,13.70
2019,08,14,01,54,13.70
2019,08,14,01,55,13.70
2019,08,14,01,56,13.70
2019,08,14,01,57,13.60
2019,08,14,01,58,13.60
2019,08,14,01,59,13.60
2019,08,14,02,00,13.60
2019,08,14,02,01,13.60
2019,08,14,02,02,13.50
2019,08,14,02,03,13.50
2019,08,14,02,04,13.50
2019,08,14,02,05,13.40
2019,08,14,02,06,13.40
2019,08,14,02,07,13.40
2019,08,14,02,08,13.40
2019,08,14,02,09,13.40
2019,08,14,02,10,13.30
2019,08,14,02,11,13.30
2019,08,14,02,12,13.30
2019,08,14,02,13,13.30
2019,08,14,02,14,13.30
2019,08,14,02,15,13.30
2019,08,14,02,16,13.30
2019,08,14,02,17,13.30
2019,08,14,02,18,13.30
2019,08,14,02,19,13.30
2019,08,14,02,20,13.30
2019,08,14,02,21,13.40
2019,08,14,02,22,13.40
2019,08,14,02,23,13.40
2019,08,14,02,24,13.40
2019,08,14,02,25,13.30
2019,08,14,02,26,13.30
2019,08,14,02,27,13.30
2019,08,14,02,28,13.30
2019,08,14,02,29,13.30
2019,08,14,02,30,13.30
2019,08,14,02,31,13.30
2019,08,14,02,32,13.30
2019,08,14,02,33,13.30
2019,08,14,02,34,13.30
2019,08,14,02,35,13.30
2019,08,14,02,36,13.30
2019,08,14,02,37,13.30
2019,08,14,02,38,13.30
2019,08,14,02,39,13.30
2019,08,14,02,40,13.30
2019,08,14,02,41,13.20
2019,08,14,02,42,13.20
2019,08,14,02,43,13.20
2019,08,14,02,44,13.20
2019,08,14,02,45,13.20
2019,08,14,02,46,13.20
2019,08,14,02,47,13.10
2019,08,14,02,48,13.10
2019,08,14,02,49,13.10
2019,08,14,02,50,13.10
2019,08,14,02,51,13.10
2019,08,14,02,52,13.10
2019,08,14,02,53,13.10
2019,08,14,02,54,13.10
2019,08,14,02,55,13.10
2019,08,14,02,56,13.10
2019,08,14,02,57,13.10
2019,08,14,02,58,13.10
2019,08,14,02,59,13.10
2019,08,14,03,00,13.10
2019,08,14,03,01,13.10
2019,08,14,03,02,13.10
2019,08,14,03,03,13.00
2019,08,14,03,04,13.00
2019,08,14,03,05,13.00
2019,08,14,03,06,13.00
2019,08,14,03,07,12.90
2019,08,14,03,08,12.90
2019,08,14,03,09,12.90
2019,08,14,03,10,12.90
2019,08,14,03,11,12.90
2019,08,14,03,12,12.90
2019,08,14,03,13,12.90
2019,08,14,03,14,12.90
2019,08,14,03,15,12.90
2019,08,14,03,16,12.90
2019,08,14,03,17,12.90
2019,08,14,03,18,12.90
2019,08,14,03,19,12.90
2019,08,14,03,20,12.90
2019,08,14,03,21,12.90
2019,08,14,03,22,12.90
2019,08,14,03,23,12.90
2019,08,14,03,24,12.90
2019,08,14,03,25,12.90
2019,08,14,03,26,13.00
2019,08,14,03,27,12.90
2019,08,14,03,28,12.90
2019,08,14,03,29,12.90
2019,08,14,03,30,12.90
2019,08,14,03,31,12.90
2019,08,14,03,32,12.90
2019,08,14,03,33,12.90
2019,08,14,03,34,12.90
2019,08,14,03,35,12.90
2019,08,14,03,36,12.90
2019,08,14,03,37,12.90
2019,08,14,03,38,12.90
2019,08,14,03,39,12.90
2019,08,14,03,40,12.90
2019,08,14,03,41,12.90
2019,08,14,03,42,12.90
2019,08,14,03,43,12.80
2019,08,14,03,44,12.80
2019,08,14,03,45,12.80
2019,08,14,03,46,12.80
2019,08,14,03,47,12.80
2019,08,14,03,48,12.80
2019,08,14,03,49,12.80
2019,08,14,03,50,12.80
2019,08,14,03,51,12.80
2019,08,14,03,52,12.90
2019,08,14,03,53,12.90
2019,08,14,03,54,12.90
2019,08,14,03,55,12.90
2019,08,14,03,56,12.90
2019,08,14,03,57,12.90
2019,08,14,03,58,12.90
2019,08,14,03,59,12.90
2019,08,14,04,00,12.90
2019,08,14,04,01,12.80
2019,08,14,04,02,12.80
2019,08,14,04,03,12.80
2019,08,14,04,04,12.80
2019,08,14,04,05,12.80
2019,08,14,04,06,12.70
2019,08,14,04,07,12.70
2019,08,14,04,08,12.70
2019,08,14,04,09,12.60
2019,08,14,04,10,12.60
2019,08,14,04,11,12.60
2019,08,14,04,12,12.60
2019,08,14,04,13,12.60
2019,08,14,04,14,12.60
2019,08,14,04,15,12.60
2019,08,14,04,16,12.60
2019,08,14,04,17,12.60
2019,08,14,04,18,12.70
2019,08,14,04,19,12.70
2019,08,14,04,20,12.70
2019,08,14,04,21,12.70
2019,08,14,04,22,12.70
2019,08,14,04,23,12.70
2019,08,14,04,24,12.70
2019,08,14,04,25,12.70
2019,08,14,04,26,12.70
2019,08,14,04,27,12.70
2019,08,14,04,28,12.70
2019,08,14,04,29,12.70
2019,08,14,04,30,12.70
2019,08,14,04,31,12.70
2019,08,14,04,32,12.70
2019,08,14,04,33,12.70
2019,08,14,04,34,12.70
2019,08,14,04,35,12.70
2019,08,14,04,36,12.70
2019,08,14,04,37,12.70
2019,08,14,04,38,12.60
2019,08,14,04,39,12.60
2019,08,14,04,40,12.60
2019,08,14,04,41,12.60
2019,08,14,04,42,12.50
2019,08,14,04,43,12.50
2019,08,14,04,44,12.50
2019,08,14,04,45,12.50
2019,08,14,04,46,12.50
2019,08,14,04,47,12.50
2019,08,14,04,48,12.50
2019,08,14,04,49,12.50
2019,08,14,04,50,12.60
2019,08,14,04,51,12.60
2019,08,14,04,52,12.60
2019,08,14,04,53,12.60
2019,08,14,04,54,12.60
2019,08,14,04,55,12.60
2019,08,14,04,56,12.60
2019,08,14,04,57,12.50
2019,08,14,04,58,12.50
2019,08,14,04,59,12.50
2019,08,14,05,00,12.40
2019,08,14,05,01,12.40
2019,08,14,05,02,12.40
2019,08,14,05,03,12.30
2019,08,14,05,04,12.30
2019,08,14,05,05,12.30
2019,08,14,05,06,12.30
2019,08,14,05,07,12.30
2019,08,14,05,08,12.20
2019,08,14,05,09,12.20
2019,08,14,05,10,12.20
2019,08,14,05,11,12.20
2019,08,14,05,12,12.20
2019,08,14,05,13,12.20
2019,08,14,05,14,12.20
2019,08,14,05,15,12.20
2019,08,14,05,16,12.20
2019,08,14,05,17,12.20
2019,08,14,05,18,12.20
2019,08,14,05,19,12.20
2019,08,14,05,20,12.20
2019,08,14,05,21,12.20
2019,08,14,05,22,12.30
2019,08,14,05,23,12.30
2019,08,14,05,24,12.30
2019,08,14,05,25,12.30
2019,08,14,05,26,12.30
2019,08,14,05,27,12.30
2019,08,14,05,28,12.30
2019,08,14,05,29,12.30
2019,08,14,05,30,12.30
2019,08,14,05,31,12.30
2019,08,14,05,32,12.30
2019,08,14,05,33,12.30
2019,08,14,05,34,12.30
2019,08,14,05,35,12.30
2019,08,14,05,36,12.30
2019,08,14,05,37,12.30
2019,08,14,05,38,12.30
2019,08,14,05,39,12.30
2019,08,14,05,40,12.30
2019,08,14,05,41,12.30
2019,08,14,05,42,12.30
2019,08,14,05,43,12.30
2019,08,14,05,44,12.30
2019,08,14,05,45,12.30
2019,08,14,05,46,12.30
2019,08,14,05,47,12.30
2019,08,14,05,48,12.30
2019,08,14,05,49,12.20
2019,08,14,05,50,12.20
2019,08,14,05,51,12.20
2019,08,14,05,52,12.20
2019,08,14,05,53,12.10
2019,08,14,05,54,12.10
2019,08,14,05,55,12.10
2019,08,14,05,56,12.10
2019,08,14,05,57,12.00
2019,08,14,05,58,12.00
2019,08,14,05,59,11.90
2019,08,14,06,00,11.90
2019,08,14,06,01,11.90
2019,08,14,06,02,11.80
2019,08,14,06,03,11.80
2019,08,14,06,04,11.80
2019,08,14,06,05,11.70
2019,08,14,06,06,11.70
2019,08,14,06,07,11.70
2019,08,14,06,08,11.70
2019,08,14,06,09,11.70
2019,08,14,06,10,11.60
2019,08,14,06,11,11.60
2019,08,14,06,12,11.60
2019,08,14,06,13,11.60
2019,08,14,06,14,11.60
2019,08,14,06,15,11.60
2019,08,14,06,16,11.60
2019,08,14,06,17,11.60
2019,08,14,06,18,11.60
2019,08,14,06,19,11.60
2019,08,14,06,20,11.60
2019,08,14,06,21,11.60
2019,08,14,06,22,11.60
2019,08,14,06,23,11.60
2019,08,14,06,24,11.70
2019,08,14,06,25,11.70
2019,08,14,06,26,11.70
2019,08,14,06,27,11.80
2019,08,14,06,28,11.80
2019,08,14,06,29,11.80
2019,08,14,06,30,11.80
2019,08,14,06,31,11.80
2019,08,14,06,32,11.80
2019,08,14,06,33,11.80
2019,08,14,06,34,11.90
2019,08,14,06,35,11.80
2019,08,14,06,36,11.90
2019,08,14,06,37,11.90
2019,08,14,06,38,11.90
2019,08,14,06,39,11.90
2019,08,14,06,40,11.80
2019,08,14,06,41,11.80
2019,08,14,06,42,11.80
2019,08,14,06,43,11.80
2019,08,14,06,44,11.80
2019,08,14,06,45,11.80
2019,08,14,06,46,11.80
2019,08,14,06,47,11.80
2019,08,14,06,48,11.80
2019,08,14,06,49,11.80
2019,08,14,06,50,11.80
2019,08,14,06,51,11.70
2019,08,14,06,52,11.70
2019,08,14,06,53,11.70
2019,08,14,06,54,11.70
2019,08,14,06,55,11.70
2019,08,14,06,56,11.70
2019,08,14,06,57,11.70
2019,08,14,06,58,11.70
2019,08,14,06,59,11.70
2019,08,14,07,00,11.70
2019,08,14,07,01,11.70
2019,08,14,07,02,11.70
2019,08,14,07,03,11.70
2019,08,14,07,04,11.70
2019,08,14,07,05,11.80
2019,08,14,07,06,11.80
2019,08,14,07,07,11.80
2019,08,14,07,08,11.80
2019,08,14,07,09,11.80
2019,08,14,07,10,11.80
2019,08,14,07,11,11.80
2019,08,14,07,12,11.80
2019,08,14,07,13,11.80
2019,08,14,07,14,11.80
2019,08,14,07,15,11.80
2019,08,14,07,16,11.80
2019,08,14,07,17,11.90
2019,08,14,07,18,11.90
2019,08,14,07,19,11.90
2019,08,14,07,20,12.00
2019,08,14,07,21,12.00
2019,08,14,07,22,12.00
2019,08,14,07,23,12.10
2019,08,14,07,24,12.10
2019,08,14,07,25,12.10
2019,08,14,07,26,12.10
2019,08,14,07,27,12.20
2019,08,14,07,28,12.20
2019,08,14,07,29,12.20
2019,08,14,07,30,12.20
2019,08,14,07,31,12.20
2019,08,14,07,32,12.20
2019,08,14,07,33,12.20
2019,08,14,07,34,12.20
2019,08,14,07,35,12.20
2019,08,14,07,36,12.30
2019,08,14,07,37,12.30
2019,08,14,07,38,12.30
2019,08,14,07,39,12.30
2019,08,14,07,40,12.30
2019,08,14,07,41,12.30
2019,08,14,07,42,12.30
2019,08,14,07,43,12.40
2019,08,14,07,44,12.40
2019,08,14,07,45,12.40
2019,08,14,07,46,12.40
2019,08,14,07,47,12.50
2019,08,14,07,48,12.50
2019,08,14,07,49,12.50
2019,08,14,07,50,12.60
2019,08,14,07,51,12.60
2019,08,14,07,52,12.60
2019,08,14,07,53,12.70
2019,08,14,07,54,12.70
2019,08,14,07,55,12.70
2019,08,14,07,56,12.80
2019,08,14,07,57,12.80
2019,08,14,07,58,12.80
2019,08,14,07,59,12.80
2019,08,14,08,00,12.90
2019,08,14,08,01,12.90
2019,08,14,08,02,13.00
2019,08,14,08,03,13.10
2019,08,14,08,04,13.20
2019,08,14,08,05,13.20
2019,08,14,08,06,13.30
2019,08,14,08,07,13.30
2019,08,14,08,08,13.40
2019,08,14,08,09,13.40
2019,08,14,08,10,13.40
2019,08,14,08,11,13.40
2019,08,14,08,12,13.40
2019,08,14,08,13,13.40
2019,08,14,08,14,13.40
2019,08,14,08,15,13.40
2019,08,14,08,16,13.50
2019,08,14,08,17,13.50
2019,08,14,08,18,13.50
2019,08,14,08,19,13.60
2019,08,14,08,20,13.70
2019,08,14,08,21,13.70
2019,08,14,08,22,13.80
2019,08,14,08,23,13.80
2019,08,14,08,24,13.80
2019,08,14,08,25,13.90
2019,08,14,08,26,13.80
2019,08,14,08,27,13.80
2019,08,14,08,28,13.80
2019,08,14,08,29,13.80
2019,08,14,08,30,13.80
2019,08,14,08,31,13.90
2019,08,14,08,32,13.90
2019,08,14,08,33,13.90
2019,08,14,08,34,14.00
2019,08,14,08,35,14.00
2019,08,14,08,36,14.00
2019,08,14,08,37,14.10
2019,08,14,08,38,14.10
2019,08,14,08,39,14.10
2019,08,14,08,40,14.20
2019,08,14,08,41,14.20
2019,08,14,08,42,14.30
2019,08,14,08,43,14.40
2019,08,14,08,44,14.40
2019,08,14,08,45,14.50
2019,08,14,08,46,14.50
2019,08,14,08,47,14.60
2019,08,14,08,48,14.70
2019,08,14,08,49,14.70
2019,08,14,08,50,14.80
2019,08,14,08,51,14.90
2019,08,14,08,52,15.00
2019,08,14,08,53,15.10
2019,08,14,08,54,15.20
2019,08,14,08,55,15.20
2019,08,14,08,56,15.20
2019,08,14,08,57,15.20
2019,08,14,08,58,15.20
2019,08,14,08,59,15.20
2019,08,14,09,00,15.30
2019,08,14,09,01,15.30
2019,08,14,09,02,15.30
2019,08,14,09,03,15.30
2019,08,14,09,04,15.30
2019,08,14,09,05,15.20
2019,08,14,09,06,15.20
2019,08,14,09,07,15.20
2019,08,14,09,08,15.20
2019,08,14,09,09,15.20
2019,08,14,09,10,15.20
2019,08,14,09,11,15.20
2019,08,14,09,12,15.20
2019,08,14,09,13,15.20
2019,08,14,09,14,15.30
2019,08,14,09,15,15.40
2019,08,14,09,16,15.50
2019,08,14,09,17,15.60
2019,08,14,09,18,15.70
2019,08,14,09,19,15.80
2019,08,14,09,20,15.80
2019,08,14,09,21,15.90
2019,08,14,09,22,15.90
2019,08,14,09,23,16.00
2019,08,14,09,24,16.10
2019,08,14,09,25,16.10
2019,08,14,09,26,16.20
2019,08,14,09,27,16.20
2019,08,14,09,28,16.30
2019,08,14,09,29,16.40
2019,08,14,09,30,16.40
2019,08,14,09,31,16.50
2019,08,14,09,32,16.60
2019,08,14,09,33,16.60
2019,08,14,09,34,16.60
2019,08,14,09,35,16.70
2019,08,14,09,36,16.80
2019,08,14,09,37,16.90
2019,08,14,09,38,17.10
2019,08,14,09,39,17.20
2019,08,14,09,40,17.30
2019,08,14,09,41,17.30
2019,08,14,09,42,17.30
2019,08,14,09,43,17.30
2019,08,14,09,44,17.20
2019,08,14,09,45,17.20
2019,08,14,09,46,17.10
2019,08,14,09,47,17.00
2019,08,14,09,48,17.00
2019,08,14,09,49,17.00
2019,08,14,09,50,17.00
2019,08,14,09,51,17.00
2019,08,14,09,52,17.00
2019,08,14,09,53,17.00
2019,08,14,09,54,17.10
2019,08,14,09,55,17.10
2019,08,14,09,56,17.20
2019,08,14,09,57,17.20
2019,08,14,09,58,17.20
2019,08,14,09,59,17.20
2019,08,14,10,00,17.20
2019,08,14,10,01,17.10
2019,08,14,10,02,17.10
2019,08,14,10,03,17.10
2019,08,14,10,04,17.20
2019,08,14,10,05,17.20
2019,08,14,10,06,17.20
2019,08,14,10,07,17.20
2019,08,14,10,08,17.20
2019,08,14,10,09,17.20
2019,08,14,10,10,17.20
2019,08,14,10,11,17.20
2019,08,14,10,12,17.20
2019,08,14,10,13,17.10
2019,08,14,10,14,17.10
2019,08,14,10,15,17.10
2019,08,14,10,16,17.10
2019,08,14,10,17,17.10
2019,08,14,10,18,17.00
2019,08,14,10,19,17.10
2019,08,14,10,20,17.00
2019,08,14,10,21,17.00
2019,08,14,10,22,17.00
2019,08,14,10,23,17.00
2019,08,14,10,24,16.90
2019,08,14,10,25,16.90
2019,08,14,10,26,16.90
2019,08,14,10,27,16.90
2019,08,14,10,28,16.90
2019,08,14,10,29,16.90
2019,08,14,10,30,16.90
2019,08,14,10,31,16.90
2019,08,14,10,32,16.80
2019,08,14,10,33,16.80
2019,08,14,10,34,16.70
2019,08,14,10,35,16.60
2019,08,14,10,36,16.60
2019,08,14,10,37,16.60
2019,08,14,10,38,16.60
2019,08,14,10,39,16.60
2019,08,14,10,40,16.50
2019,08,14,10,41,16.50
2019,08,14,10,42,16.50
2019,08,14,10,43,16.40
2019,08,14,10,44,16.40
2019,08,14,10,45,16.40
2019,08,14,10,46,16.40
2019,08,14,10,47,16.50
2019,08,14,10,48,16.50
2019,08,14,10,49,16.60
2019,08,14,10,50,16.60
2019,08,14,10,51,16.60
2019,08,14,10,52,16.60
2019,08,14,10,53,16.60
2019,08,14,10,54,16.60
2019,08,14,10,55,16.60
2019,08,14,10,56,16.60
2019,08,14,10,57,16.60
2019,08,14,10,58,16.50
2019,08,14,10,59,16.40
2019,08,14,11,00,16.40
2019,08,14,11,01,16.40
2019,08,14,11,02,16.40
2019,08,14,11,03,16.40
2019,08,14,11,04,16.40
2019,08,14,11,05,16.50
2019,08,14,11,06,16.60
2019,08,14,11,07,16.60
2019,08,14,11,08,16.60
2019,08,14,11,09,16.60
2019,08,14,11,10,16.60
2019,08,14,11,11,16.60
2019,08,14,11,12,16.70
2019,08,14,11,13,16.70
2019,08,14,11,14,16.80
2019,08,14,11,15,16.80
2019,08,14,11,16,16.90
2019,08,14,11,17,17.10
2019,08,14,11,18,17.20
2019,08,14,11,19,17.30
2019,08,14,11,20,17.40
2019,08,14,11,21,17.40
2019,08,14,11,22,17.50
2019,08,14,11,23,17.50
2019,08,14,11,24,17.60
2019,08,14,11,25,17.60
2019,08,14,11,26,17.70
2019,08,14,11,27,17.70
2019,08,14,11,28,17.70
2019,08,14,11,29,17.70
2019,08,14,11,30,17.70
2019,08,14,11,31,17.70
2019,08,14,11,32,17.80
2019,08,14,11,33,17.80
2019,08,14,11,34,17.90
2019,08,14,11,35,18.00
2019,08,14,11,36,18.00
2019,08,14,11,37,18.20
2019,08,14,11,38,18.30
2019,08,14,11,39,18.50
2019,08,14,11,40,18.70
2019,08,14,11,41,18.80
2019,08,14,11,42,18.80
2019,08,14,11,43,18.80
2019,08,14,11,44,18.90
2019,08,14,11,45,18.90
2019,08,14,11,46,18.90
2019,08,14,11,47,18.90
2019,08,14,11,48,19.00
2019,08,14,11,49,19.00
2019,08,14,11,50,19.00
2019,08,14,11,51,19.00
2019,08,14,11,52,18.90
2019,08,14,11,53,18.80
2019,08,14,11,54,18.70
2019,08,14,11,55,18.60
2019,08,14,11,56,18.50
2019,08,14,11,57,18.40
2019,08,14,11,58,18.20
2019,08,14,11,59,18.10
2019,08,14,12,00,17.90
2019,08,14,12,01,17.80
2019,08,14,12,02,17.70
2019,08,14,12,03,17.60
2019,08,14,12,04,17.50
2019,08,14,12,05,17.50
2019,08,14,12,06,17.50
2019,08,14,12,07,17.60
2019,08,14,12,08,17.60
2019,08,14,12,09,17.60
2019,08,14,12,10,17.70
2019,08,14,12,11,17.70
2019,08,14,12,12,17.80
2019,08,14,12,13,17.90
2019,08,14,12,14,18.00
2019,08,14,12,15,18.10
2019,08,14,12,16,18.20
2019,08,14,12,17,18.20
2019,08,14,12,18,18.30
2019,08,14,12,19,18.20
2019,08,14,12,20,18.20
2019,08,14,12,21,18.20
2019,08,14,12,22,18.20
2019,08,14,12,23,18.20
2019,08,14,12,24,18.30
2019,08,14,12,25,18.30
2019,08,14,12,26,18.30
2019,08,14,12,27,18.30
2019,08,14,12,28,18.40
2019,08,14,12,29,18.30
2019,08,14,12,30,18.30
2019,08,14,12,31,18.30
2019,08,14,12,32,18.40
2019,08,14,12,33,18.50
2019,08,14,12,34,18.50
2019,08,14,12,35,18.60
2019,08,14,12,36,18.70
2019,08,14,12,37,18.70
2019,08,14,12,38,18.60
2019,08,14,12,39,18.60
2019,08,14,12,40,18.50
2019,08,14,12,41,18.50
2019,08,14,12,42,18.30
2019,08,14,12,43,18.20
2019,08,14,12,44,18.10
2019,08,14,12,45,18.00
2019,08,14,12,46,17.90
2019,08,14,12,47,17.80
2019,08,14,12,48,17.80
2019,08,14,12,49,17.70
2019,08,14,12,50,17.60
2019,08,14,12,51,17.60
2019,08,14,12,52,17.60
2019,08,14,12,53,17.50
2019,08,14,12,54,17.40
2019,08,14,12,55,17.40
2019,08,14,12,56,17.40
2019,08,14,12,57,17.30
2019,08,14,12,58,17.30
2019,08,14,12,59,17.20
2019,08,14,13,00,17.20
2019,08,14,13,01,17.30
2019,08,14,13,02,17.30
2019,08,14,13,03,17.30
2019,08,14,13,04,17.40
2019,08,14,13,05,17.40
2019,08,14,13,06,17.50
2019,08,14,13,07,17.50
2019,08,14,13,08,17.50
2019,08,14,13,09,17.60
2019,08,14,13,10,17.60
2019,08,14,13,11,17.70
2019,08,14,13,12,17.70
2019,08,14,13,13,17.80
2019,08,14,13,14,17.80
2019,08,14,13,15,17.80
2019,08,14,13,16,17.70
2019,08,14,13,17,17.70
2019,08,14,13,18,17.70
2019,08,14,13,19,17.60
2019,08,14,13,20,17.60
2019,08,14,13,21,17.60
2019,08,14,13,22,17.50
2019,08,14,13,23,17.40
2019,08,14,13,24,17.40
2019,08,14,13,25,17.40
2019,08,14,13,26,17.40
2019,08,14,13,27,17.40
2019,08,14,13,28,17.50
2019,08,14,13,29,17.60
2019,08,14,13,30,17.60
2019,08,14,13,31,17.70
2019,08,14,13,32,17.70
2019,08,14,13,33,17.70
2019,08,14,13,34,17.70
2019,08,14,13,35,17.60
2019,08,14,13,36,17.50
2019,08,14,13,37,17.30
2019,08,14,13,38,17.20
2019,08,14,13,39,17.10
2019,08,14,13,40,17.10
2019,08,14,13,41,17.10
2019,08,14,13,42,17.00
2019,08,14,13,43,17.00
2019,08,14,13,44,16.90
2019,08,14,13,45,16.90
2019,08,14,13,46,16.90
2019,08,14,13,47,16.90
2019,08,14,13,48,16.90
2019,08,14,13,49,17.00
2019,08,14,13,50,17.10
2019,08,14,13,51,17.10
2019,08,14,13,52,17.10
2019,08,14,13,53,17.10
2019,08,14,13,54,17.10
2019,08,14,13,55,17.10
2019,08,14,13,56,17.10
2019,08,14,13,57,17.10
2019,08,14,13,58,17.10
2019,08,14,13,59,17.00
2019,08,14,14,00,16.90
2019,08,14,14,01,16.90
2019,08,14,14,02,16.80
2019,08,14,14,03,16.80
2019,08,14,14,04,16.90
2019,08,14,14,05,16.90
2019,08,14,14,06,16.90
2019,08,14,14,07,16.90
2019,08,14,14,08,17.00
2019,08,14,14,09,17.00
2019,08,14,14,10,17.10
2019,08,14,14,11,17.10
2019,08,14,14,12,17.00
2019,08,14,14,13,16.90
2019,08,14,14,14,16.80
2019,08,14,14,15,16.80
2019,08,14,14,16,16.80
2019,08,14,14,17,16.90
2019,08,14,14,18,16.90
2019,08,14,14,19,16.90
2019,08,14,14,20,16.90
2019,08,14,14,21,16.90
2019,08,14,14,22,16.90
2019,08,14,14,23,17.00
2019,08,14,14,24,17.00
2019,08,14,14,25,17.00
2019,08,14,14,26,17.00
2019,08,14,14,27,16.90
2019,08,14,14,28,16.90
2019,08,14,14,29,16.80
2019,08,14,14,30,16.80
2019,08,14,14,31,16.80
2019,08,14,14,32,16.90
2019,08,14,14,33,16.80
2019,08,14,14,34,16.80
2019,08,14,14,35,16.80
2019,08,14,14,36,16.80
2019,08,14,14,37,16.80
2019,08,14,14,38,16.80
2019,08,14,14,39,16.90
2019,08,14,14,40,17.00
2019,08,14,14,41,17.00
2019,08,14,14,42,17.10
2019,08,14,14,43,17.10
2019,08,14,14,44,17.20
2019,08,14,14,45,17.20
2019,08,14,14,46,17.30
2019,08,14,14,47,17.30
2019,08,14,14,48,17.30
2019,08,14,14,49,17.40
2019,08,14,14,50,17.40
2019,08,14,14,51,17.40
2019,08,14,14,52,17.40
2019,08,14,14,53,17.40
2019,08,14,14,54,17.40
2019,08,14,14,55,17.40
2019,08,14,14,56,17.40
2019,08,14,14,57,17.40
2019,08,14,14,58,17.50
2019,08,14,14,59,17.60
2019,08,14,15,00,17.60
2019,08,14,15,01,17.70
2019,08,14,15,02,17.70
2019,08,14,15,03,17.70
2019,08,14,15,04,17.80
2019,08,14,15,05,17.90
2019,08,14,15,06,18.00
2019,08,14,15,07,18.00
2019,08,14,15,08,18.10
2019,08,14,15,09,18.00
2019,08,14,15,10,18.00
2019,08,14,15,11,18.00
2019,08,14,15,12,18.00
2019,08,14,15,13,18.10
2019,08,14,15,14,18.10
2019,08,14,15,15,18.10
2019,08,14,15,16,18.20
2019,08,14,15,17,18.20
2019,08,14,15,18,18.20
2019,08,14,15,19,18.30
2019,08,14,15,20,18.30
2019,08,14,15,21,18.30
2019,08,14,15,22,18.30
2019,08,14,15,23,18.40
2019,08,14,15,24,18.40
2019,08,14,15,25,18.40
2019,08,14,15,26,18.50
2019,08,14,15,27,18.60
2019,08,14,15,28,18.70
2019,08,14,15,29,18.80
2019,08,14,15,30,18.80
2019,08,14,15,31,18.90
2019,08,14,15,32,18.90
2019,08,14,15,33,19.00
2019,08,14,15,34,19.10
2019,08,14,15,35,19.20
2019,08,14,15,36,19.20
2019,08,14,15,37,19.20
2019,08,14,15,38,19.30
2019,08,14,15,39,19.40
2019,08,14,15,40,19.40
2019,08,14,15,41,19.50
2019,08,14,15,42,19.60
2019,08,14,15,43,19.60
2019,08,14,15,44,19.70
2019,08,14,15,45,19.80
2019,08,14,15,46,19.90
2019,08,14,15,47,19.90
2019,08,14,15,48,20.00
2019,08,14,15,49,20.00
2019,08,14,15,50,20.00
2019,08,14,15,51,20.10
2019,08,14,15,52,20.10
2019,08,14,15,53,20.10
2019,08,14,15,54,20.10
2019,08,14,15,55,20.20
2019,08,14,15,56,20.20
2019,08,14,15,57,20.20
2019,08,14,15,58,20.20
2019,08,14,15,59,20.20
2019,08,14,16,00,20.20
2019,08,14,16,01,20.20
2019,08,14,16,02,20.30
2019,08,14,16,03,20.30
2019,08,14,16,04,20.30
2019,08,14,16,05,20.30
2019,08,14,16,06,20.30
2019,08,14,16,07,20.30
2019,08,14,16,08,20.30
2019,08,14,16,09,20.30
2019,08,14,16,10,20.30
2019,08,14,16,11,20.30
2019,08,14,16,12,20.40
2019,08,14,16,13,20.40
2019,08,14,16,14,20.40
2019,08,14,16,15,20.30
2019,08,14,16,16,20.30
2019,08,14,16,17,20.20
2019,08,14,16,18,20.20
2019,08,14,16,19,20.20
2019,08,14,16,20,20.20
2019,08,14,16,21,20.30
2019,08,14,16,22,20.30
2019,08,14,16,23,20.30
2019,08,14,16,24,20.30
2019,08,14,16,25,20.30
2019,08,14,16,26,20.30
2019,08,14,16,27,20.30
2019,08,14,16,28,20.30
2019,08,14,16,29,20.30
2019,08,14,16,30,20.30
2019,08,14,16,31,20.30
2019,08,14,16,32,20.30
2019,08,14,16,33,20.30
2019,08,14,16,34,20.40
2019,08,14,16,35,20.40
2019,08,14,16,36,20.40
2019,08,14,16,37,20.40
2019,08,14,16,38,20.40
2019,08,14,16,39,20.40
2019,08,14,16,40,20.50
2019,08,14,16,41,20.60
2019,08,14,16,42,20.70
2019,08,14,16,43,20.80
2019,08,14,16,44,20.90
2019,08,14,16,45,20.90
2019,08,14,16,46,21.00
2019,08,14,16,47,21.00
2019,08,14,16,48,21.00
2019,08,14,16,49,20.90
2019,08,14,16,50,20.90
2019,08,14,16,51,20.90
2019,08,14,16,52,20.90
2019,08,14,16,53,20.90
2019,08,14,16,54,20.90
2019,08,14,16,55,20.90
2019,08,14,16,56,20.90
2019,08,14,16,57,21.00
2019,08,14,16,58,21.00
2019,08,14,16,59,21.00
2019,08,14,17,00,21.10
2019,08,14,17,01,21.20
2019,08,14,17,02,21.20
2019,08,14,17,03,21.30
2019,08,14,17,04,21.30
2019,08,14,17,05,21.40
2019,08,14,17,06,21.50
2019,08,14,17,07,21.60
2019,08,14,17,08,21.70
2019,08,14,17,09,21.80
2019,08,14,17,10,22.00
2019,08,14,17,11,22.10
2019,08,14,17,12,22.20
2019,08,14,17,13,22.20
2019,08,14,17,14,22.30
2019,08,14,17,15,22.30
2019,08,14,17,16,22.40
2019,08,14,17,17,22.40
2019,08,14,17,18,22.50
2019,08,14,17,19,22.50